Location: Ferchesar
(52.6477°N, 12.4298°E)
Time: 05:47:11
(UTC+01:00)

Vanguard 2 Rocket - Pass Details

Date: 07 December 2021
Orbit: 553 x 3325 km, 32.9° (Epoch: 25 January)

Event Time Altitude Azimuth Distance (km) Brightness Sun altitude
Rises 17:58:13 0° 215° (SW) 3,202 10.5 -17.3°
Reaches altitude 10° 18:01:45 10° 187° (S) 2,624 9.5 -17.8°
Maximum altitude 18:04:37 13° 160° (SSE) 2,693 9.2 -18.2°
Drops below altitude 10° 18:08:05 10° 134° (SE) 3,337 9.5 -18.8°
Enters shadow 18:09:25 - 127° (SE) 3,680 9.6 -19.0°
Sets 18:13:55 0° 112° (ESE) 4,995 - -19.6°
